GW3558 Weather Reports


Display with metric or nautical units.
time (UTC)temp
F
wind
direction
speed
MPH
gust
MPH
rain 1hr
in
rain 24hr
in
rain mn
in
humidity
%
barometer
mb
20260831033056 53 19 0.0 0.0 0.00 0.00 0.00 65 1021.4
20260831032517 53 20 0.0 0.0 0.00 0.00 0.00 65 1021.4
20260831032019 53 20 0.0 0.0 0.00 0.00 0.00 65 1021.4
20260831031548 53 20 0.0 0.0 0.00 0.00 0.00 64 1021.4
20260831031020 53 20 0.0 0.0 0.00 0.00 0.00 63 1021.3
20260831030519 53 20 0.0 0.0 0.00 0.00 0.00 62 1021.3
20260831030100 53 20 0.0 0.0 0.00 0.00 0.00 62 1021.2
20260831025518 53 20 0.0 0.0 0.00 0.00 0.00 60 1021.2
20260831025021 53 20 0.0 0.0 0.00 0.00 0.00 60 1021.1
20260831024555 54 20 0.0 0.0 0.00 0.00 0.00 60 1021.3
20260831024018 54 20 0.0 0.0 0.00 0.00 0.00 60 1021.3
20260831023518 54 20 0.0 0.0 0.00 0.00 0.00 58 1021.4
20260831023050 55 20 0.0 0.0 0.00 0.00 0.00 59 1021.3
20260831022517 55 20 0.0 0.0 0.00 0.00 0.00 58 1021.1
20260831022019 55 20 0.0 0.0 0.00 0.00 0.00 56 1021.1
20260831021551 56 20 0.0 0.0 0.00 0.00 0.00 56 1021.1
20260831021019 56 20 0.0 0.0 0.00 0.00 0.00 55 1021.1
20260831020517 57 20 0.0 0.0 0.00 0.00 0.00 53 1021.2
20260831020047 57 20 0.0 0.0 0.00 0.00 0.00 52 1021.1
20260831015520 57 19 0.0 0.0 0.00 0.00 0.00 54 1021.1
20260831015022 57 19 0.0 0.0 0.00 0.00 0.00 52 1021.1
20260831014546 57 19 0.0 0.0 0.00 0.00 0.00 52 1021.3
20260831014021 58 19 0.0 0.0 0.00 0.00 0.00 52 1021.4
20260831013517 58 19 0.0 0.0 0.00 0.00 0.00 51 1021.3
20260831013050 58 19 0.0 0.0 0.00 0.00 0.00 52 1021.3
20260831012520 58 19 0.0 2.0 0.00 0.00 0.00 52 1021.3
20260831012020 58 24 0.0 2.0 0.00 0.00 0.00 51 1021.2
20260831011552 57 46 0.0 0.0 0.00 0.00 0.00 52 1021.1
20260831011017 57 46 0.0 0.0 0.00 0.00 0.00 52 1021.1
20260831010519 57 46 0.0 0.0 0.00 0.00 0.00 52 1021.1
20260831010103 57 49 0.0 0.0 0.00 0.00 0.00 52 1021.1
20260831005519 57 54 0.0 0.0 0.00 0.00 0.00 52 1021.1
20260831005022 57 65 0.0 0.0 0.00 0.00 0.00 52 1021.2
20260831004544 57 69 0.0 0.0 0.00 0.00 0.00 52 1021.2
20260831004019 57 70 0.0 0.0 0.00 0.00 0.00 52 1021.1
20260831003519 58 70 0.0 0.0 0.00 0.00 0.00 51 1021.1
20260831003102 58 70 0.0 0.0 0.00 0.00 0.00 50 1021.1
20260831002517 58 70 0.0 0.0 0.00 0.00 0.00 50 1021.2
20260831002018 58 70 0.0 0.0 0.00 0.00 0.00 50 1021.1
20260831001555 59 70 0.0 0.0 0.00 0.00 0.00 49 1021.1
20260831001019 59 70 0.0 0.0 0.00 0.00 0.00 49 1021.1
20260831000520 59 70 0.0 0.0 0.00 0.00 0.00 49 1021.3
20260831000055 59 70 0.0 0.0 0.00 0.00 0.00 48 1021.1
20260830235518 59 70 0.0 0.0 0.00 0.00 0.00 47 1021.2
20260830235020 60 70 0.0 0.0 0.00 0.00 0.00 49 1021.3
20260830234551 60 70 0.0 0.0 0.00 0.00 0.00 49 1021.4
20260830234019 60 71 0.0 0.0 0.00 0.00 0.00 49 1021.3
20260830233516 60 71 0.0 0.0 0.00 0.00 0.00 49 1021.4
20260830233046 60 71 0.0 0.0 0.00 0.00 0.00 47 1021.4
20260830232519 60 70 0.0 0.0 0.00 0.00 0.00 48 1021.4
20260830232021 60 71 0.0 0.0 0.00 0.00 0.00 48 1021.5
20260830231555 60 73 0.0 0.0 0.00 0.00 0.00 47 1021.5
20260830231022 60 74 0.0 0.0 0.00 0.00 0.00 49 1021.5
20260830230524 60 80 0.0 1.0 0.00 0.00 0.00 47 1021.5
20260830230051 60 96 0.0 1.0 0.00 0.00 0.00 49 1021.5
20260830225517 60 79 0.0 4.0 0.00 0.01 0.00 47 1021.6
20260830225016 60 98 0.0 4.0 0.00 0.01 0.00 48 1021.6
20260830224545 60 100 0.0 0.0 0.00 0.01 0.00 47 1021.6
20260830224018 60 95 0.0 3.0 0.00 0.01 0.00 47 1021.5
20260830223519 60 99 0.0 3.0 0.00 0.01 0.00 48 1021.7
20260830223042 60 88 0.0 3.0 0.00 0.01 0.00 48 1021.6
20260830222518 59 97 0.0 3.0 0.00 0.01 0.00 49 1021.7
20260830222017 59 65 0.0 8.0 0.00 0.01 0.00 50 1021.7
20260830221553 59 98 1.0 8.0 0.00 0.01 0.00 49 1021.7
20260830221018 59 103 0.0 4.0 0.00 0.01 0.00 50 1021.7
20260830220518 59 98 0.0 6.0 0.00 0.01 0.00 49 1021.7
20260830215517 58 107 1.0 6.0 0.00 0.01 0.00 52 1021.7
20260830215016 58 92 0.0 9.0 0.00 0.01 0.00 53 1021.8
20260830214552 58 106 1.0 9.0 0.00 0.01 0.00 52 1021.8
20260830214019 58 99 0.0 7.0 0.00 0.01 0.00 51 1021.8
20260830213523 58 106 0.0 7.0 0.00 0.01 0.00 52 1021.9
20260830213045 59 99 0.0 6.0 0.00 0.01 0.00 51 1022.1
20260830212520 59 103 2.0 6.0 0.00 0.01 0.00 50 1022.1
20260830212021 58 91 0.0 7.0 0.00 0.01 0.00 54 1021.9
20260830211555 58 104 0.0 4.0 0.00 0.01 0.00 53 1022.0
20260830211018 57 103 0.0 7.0 0.00 0.01 0.00 53 1022.2
20260830210520 58 107 1.0 7.0 0.00 0.01 0.00 54 1022.0
20260830210044 57 107 2.0 7.0 0.00 0.01 0.00 52 1022.1
20260830205517 58 96 0.0 7.0 0.00 0.01 0.00 52 1022.1
20260830205021 58 99 1.0 8.0 0.00 0.01 0.00 51 1022.1
20260830204548 59 104 2.0 8.0 0.00 0.01 0.00 49 1022.1
20260830204018 59 101 0.0 6.0 0.00 0.01 0.00 51 1022.1
20260830203521 58 103 1.0 8.0 0.00 0.01 0.00 51 1021.9
20260830203048 58 84 0.0 8.0 0.00 0.01 0.00 54 1022.0
20260830202518 57 98 1.0 6.0 0.00 0.01 0.00 52 1022.0
20260830202019 57 86 0.0 6.0 0.00 0.01 0.00 55 1022.1
20260830201543 57 88 1.0 6.0 0.00 0.01 0.00 53 1022.0
20260830201019 58 95 0.0 4.0 0.00 0.01 0.00 51 1022.0
20260830200523 58 98 0.0 7.0 0.00 0.01 0.00 52 1021.9
20260830200054 59 103 1.0 6.0 0.00 0.01 0.00 51 1021.8
20260830195519 58 97 0.0 6.0 0.00 0.01 0.00 52 1021.9
20260830195016 58 96 0.0 2.0 0.00 0.01 0.00 53 1021.9
20260830194603 57 110 0.0 3.0 0.00 0.01 0.00 54 1021.9
20260830194017 57 97 0.0 6.0 0.00 0.01 0.00 52 1021.9
20260830193520 57 88 0.0 4.0 0.00 0.01 0.00 54 1021.8
20260830193046 56 93 0.0 4.0 0.00 0.01 0.00 55 1021.7
20260830192517 55 95 0.0 8.0 0.00 0.01 0.00 56 1021.8
20260830192018 55 103 0.0 8.0 0.00 0.01 0.00 54 1021.8
20260830191554 55 90 1.0 7.0 0.00 0.01 0.00 55 1021.9
20260830191020 56 13 1.0 7.0 0.00 0.01 0.00 53 1021.8
20260830190518 56 90 0.0 5.0 0.00 0.01 0.00 54 1021.7
20260830190048 56 5 0.0 5.0 0.00 0.01 0.00 53 1021.7
20260830185523 56 67 0.0 4.0 0.00 0.01 0.00 56 1021.7
20260830185021 55 5 0.0 4.0 0.00 0.01 0.00 57 1021.6
20260830184557 55 52 0.0 2.0 0.00 0.01 0.00 54 1021.7
20260830184020 55 36 0.0 3.0 0.00 0.01 0.00 55 1021.8
20260830183517 55 13 0.0 7.0 0.00 0.01 0.00 55 1021.8
20260830183046 55 88 1.0 7.0 0.00 0.01 0.00 57 1021.8
20260830182517 54 82 0.0 6.0 0.00 0.01 0.00 58 1021.7
20260830182017 54 36 0.0 5.0 0.00 0.01 0.00 57 1021.7
20260830181556 54 103 0.0 8.0 0.00 0.01 0.00 60 1021.6
20260830181018 54 95 0.0 8.0 0.00 0.01 0.00 60 1021.4
20260830180517 53 10 0.0 4.0 0.00 0.01 0.00 60 1021.6
20260830180059 53 86 0.0 4.0 0.00 0.01 0.00 60 1021.4
20260830175519 52 72 0.0 3.0 0.00 0.01 0.00 62 1021.5
20260830175018 51 77 0.0 3.0 0.00 0.01 0.00 67 1021.4
20260830174611 49 78 0.0 3.0 0.00 0.01 0.00 68 1021.3
20260830174018 48 71 0.0 3.0 0.00 0.01 0.00 68 1021.3
20260830173519 48 71 0.0 3.0 0.00 0.01 0.00 68 1021.3
20260830173047 48 68 0.0 3.0 0.00 0.01 0.00 68 1021.3
20260830172522 49 58 0.0 4.0 0.00 0.01 0.00 68 1021.1
20260830172020 49 78 0.0 4.0 0.00 0.01 0.00 66 1021.1
20260830171608 50 53 0.0 0.0 0.00 0.01 0.00 67 1021.1
20260830171020 50 24 0.0 0.0 0.00 0.01 0.00 67 1021.1
20260830170518 50 24 0.0 0.0 0.00 0.01 0.00 65 1021.0
20260830170056 50 23 0.0 0.0 0.00 0.01 0.00 66 1021.0
20260830165518 50 76 0.0 0.0 0.00 0.04 0.00 67 1021.0
20260830165016 50 67 0.0 0.0 0.00 0.04 0.00 65 1020.9
20260830164550 49 68 0.0 0.0 0.00 0.04 0.00 67 1020.9
20260830164027 49 68 0.0 0.0 0.00 0.04 0.00 65 1020.9
20260830163519 49 78 0.0 0.0 0.00 0.04 0.00 66 1020.9
20260830163100 49 78 0.0 0.0 0.00 0.04 0.00 64 1020.8
20260830162518 50 81 0.0 0.0 0.00 0.04 0.00 64 1020.9
20260830162018 49 69 0.0 0.0 0.00 0.04 0.00 68 1020.8
20260830161607 48 74 0.0 2.0 0.00 0.04 0.00 70 1020.7
20260830161021 47 67 0.0 2.0 0.00 0.04 0.00 70 1020.7
20260830160519 47 65 0.0 1.0 0.00 0.04 0.00 71 1020.9
20260830160051 47 62 0.0 0.0 0.00 0.04 0.00 72 1020.7
20260830155519 46 62 0.0 0.0 0.00 0.04 0.00 74 1020.8
20260830155020 46 64 0.0 0.0 0.00 0.04 0.00 73 1020.8
20260830154600 46 65 0.0 0.0 0.00 0.04 0.00 72 1020.9
20260830154022 46 65 0.0 0.0 0.00 0.04 0.00 72 1020.9
20260830153518 46 65 0.0 0.0 0.00 0.04 0.00 72 1020.7
20260830153104 46 66 0.0 3.0 0.00 0.04 0.00 73 1020.6
20260830152516 45 65 0.0 3.0 0.00 0.04 0.00 74 1020.6
20260830152021 45 59 0.0 0.0 0.00 0.04 0.00 73 1020.6
20260830151609 45 59 0.0 0.0 0.00 0.04 0.00 74 1020.6
20260830151021 45 59 0.0 0.0 0.00 0.04 0.00 74 1020.7
20260830150519 44 60 0.0 0.0 0.00 0.04 0.00 75 1020.7
20260830150054 44 61 0.0 3.0 0.00 0.04 0.00 75 1020.7
20260830145520 44 51 0.0 3.0 0.00 0.04 0.00 74 1020.8
20260830145017 44 60 0.0 0.0 0.00 0.04 0.00 75 1020.6
20260830144604 44 62 0.0 0.0 0.00 0.04 0.00 74 1020.7
20260830144016 43 63 0.0 0.0 0.00 0.04 0.00 74 1020.7
20260830143519 43 63 0.0 0.0 0.00 0.04 0.00 74 1020.6
20260830143054 43 63 0.0 6.0 0.00 0.04 0.00 74 1020.7
20260830142519 43 65 0.0 0.0 0.00 0.04 0.00 74 1020.6
20260830142023 43 63 0.0 1.0 0.00 0.04 0.00 74 1020.6
20260830141553 43 63 0.0 3.0 0.00 0.04 0.00 74 1020.4
20260830141017 43 65 0.0 3.0 0.00 0.04 0.00 73 1020.5
20260830140519 43 63 0.0 6.0 0.00 0.04 0.00 74 1020.6
20260830140111 43 67 1.0 6.0 0.00 0.04 0.00 73 1020.4
20260830135527 43 86 0.0 6.0 0.00 0.04 0.00 73 1020.3
20260830135022 43 76 0.0 6.0 0.00 0.04 0.00 73 1020.2
20260830134558 43 66 0.0 2.0 0.00 0.04 0.00 73 1020.2
20260830134018 43 69 0.0 2.0 0.00 0.04 0.00 73 1020.3
20260830133518 42 69 0.0 2.0 0.00 0.04 0.00 72 1020.4
20260830133055 42 69 0.0 3.0 0.00 0.04 0.00 72 1020.3
20260830132517 42 70 0.0 3.0 0.00 0.04 0.00 72 1020.3
20260830132021 42 61 0.0 3.0 0.00 0.04 0.00 73 1020.3
20260830131558 42 58 0.0 2.0 0.00 0.04 0.00 73 1020.4
20260830131023 42 58 0.0 2.0 0.00 0.04 0.00 73 1020.4
20260830130517 42 59 0.0 2.0 0.00 0.04 0.00 73 1020.4
20260830130106 42 59 0.0 2.0 0.00 0.04 0.00 73 1020.4
20260830125525 42 82 0.0 6.0 0.00 0.04 0.00 73 1020.3
20260830125021 42 80 0.0 4.0 0.00 0.04 0.00 73 1020.3
20260830124557 42 65 0.0 3.0 0.00 0.04 0.00 72 1020.3
20260830124020 42 70 0.0 5.0 0.00 0.04 0.00 72 1020.3
20260830123519 42 64 0.0 5.0 0.00 0.04 0.00 72 1020.5
20260830123059 42 53 0.0 5.0 0.00 0.04 0.00 72 1020.2
20260830122518 42 71 0.0 3.0 0.00 0.04 0.00 72 1020.3
20260830122020 42 63 0.0 3.0 0.00 0.04 0.00 72 1020.3
20260830121549 42 67 0.0 0.0 0.00 0.04 0.00 73 1020.4
20260830121023 42 67 0.0 0.0 0.00 0.04 0.00 73 1020.4
20260830120522 42 68 0.0 2.0 0.00 0.04 0.00 72 1020.3
20260830120106 42 71 0.0 4.0 0.00 0.04 0.00 72 1020.2
20260830115521 42 70 0.0 4.0 0.00 0.04 0.00 72 1020.3
20260830115018 42 56 0.0 1.0 0.00 0.04 0.00 71 1020.2
20260830114552 42 63 0.0 1.0 0.00 0.04 0.00 71 1020.2
20260830114017 42 63 0.0 1.0 0.00 0.04 0.00 72 1020.1
20260830113524 42 63 0.0 1.0 0.00 0.04 0.00 72 1020.3
20260830113058 42 65 0.0 4.0 0.00 0.04 0.00 72 1020.2
20260830112519 42 66 0.0 4.0 0.00 0.04 0.00 73 1020.0
20260830112019 42 70 0.0 3.0 0.00 0.04 0.00 72 1020.0
20260830111556 42 63 0.0 3.0 0.00 0.04 0.00 71 1020.0
20260830111021 42 67 0.0 3.0 0.00 0.04 0.00 71 1020.0
20260830110520 42 68 0.0 5.0 0.00 0.04 0.00 71 1020.1
20260830110058 42 61 0.0 5.0 0.00 0.04 0.00 71 1020.0
20260830105519 42 64 0.0 3.0 0.00 0.04 0.00 70 1020.1
20260830105020 42 61 0.0 4.0 0.00 0.04 0.00 70 1020.2
20260830104607 42 57 0.0 4.0 0.00 0.04 0.00 69 1020.1
20260830104023 43 61 0.0 3.0 0.00 0.04 0.00 69 1020.1
20260830103521 43 65 0.0 2.0 0.00 0.04 0.00 69 1020.1
20260830103058 43 66 0.0 3.0 0.00 0.04 0.00 69 1020.2
20260830102518 43 66 0.0 3.0 0.00 0.04 0.00 68 1020.0
20260830102019 43 69 0.0 7.0 0.00 0.04 0.00 67 1020.1
20260830101601 43 67 0.0 7.0 0.00 0.04 0.00 67 1020.1
20260830101017 43 60 0.0 9.0 0.00 0.04 0.00 67 1020.2
20260830100517 43 93 0.0 5.0 0.00 0.04 0.00 67 1020.1
20260830100105 43 62 0.0 5.0 0.00 0.04 0.00 67 1020.1
20260830095519 43 60 0.0 1.0 0.00 0.04 0.00 67 1019.9
20260830095018 43 62 0.0 4.0 0.00 0.04 0.00 66 1020.0
20260830094625 44 65 0.0 4.0 0.00 0.04 0.00 66 1020.0
20260830094019 44 56 0.0 4.0 0.00 0.04 0.00 66 1020.1
20260830093519 44 55 0.0 7.0 0.00 0.04 0.00 66 1020.1
20260830093055 44 68 1.0 7.0 0.00 0.04 0.00 66 1020.0
20260830092523 44 42 0.0 6.0 0.00 0.04 0.00 66 1020.0
20260830092025 44 66 0.0 4.0 0.00 0.04 0.00 66 1019.9
20260830091550 44 51 0.0 6.0 0.00 0.04 0.00 66 1020.1
20260830091025 43 53 0.0 3.0 0.00 0.04 0.00 66 1020.1
20260830090521 43 65 0.0 3.0 0.00 0.04 0.00 66 1020.1
20260830085722 43 52 0.0 4.0 0.00 0.04 0.00 67 1020.3
20260830085217 43 67 0.0 9.0 0.00 0.04 0.00 67 1020.1
20260830084540 43 51 0.0 9.0 0.00 0.04 0.00 67 1020.2
20260830084019 43 53 0.0 4.0 0.00 0.04 0.00 68 1020.0
20260830083517 43 49 0.0 6.0 0.00 0.04 0.00 68 1019.9
20260830083040 43 39 0.0 6.0 0.00 0.04 0.00 68 1019.9
20260830082517 43 46 0.0 4.0 0.00 0.04 0.00 67 1019.8
20260830082016 43 53 1.0 4.0 0.00 0.04 0.00 68 1019.9
20260830081538 43 63 0.0 6.0 0.00 0.04 0.00 68 1020.0
20260830081019 43 36 0.0 6.0 0.00 0.04 0.00 68 1020.1
20260830080518 42 44 0.0 2.0 0.00 0.04 0.00 68 1020.0
20260830080040 43 44 0.0 3.0 0.00 0.04 0.00 67 1020.0
20260830075518 43 48 0.0 3.0 0.00 0.04 0.00 67 1019.9
20260830075020 43 48 0.0 4.0 0.00 0.04 0.00 67 1019.9
20260830074539 43 49 0.0 4.0 0.00 0.04 0.00 67 1019.9
20260830074023 43 44 0.0 5.0 0.00 0.04 0.00 67 1019.8
20260830073518 43 53 1.0 5.0 0.00 0.04 0.00 67 1019.9
20260830073044 43 44 0.0 4.0 0.00 0.04 0.00 67 1019.8
20260830072516 43 36 1.0 8.0 0.00 0.04 0.00 67 1019.8
20260830072018 43 51 0.0 8.0 0.00 0.04 0.00 67 1019.8
20260830071554 43 45 1.0 7.0 0.00 0.04 0.00 67 1019.9
20260830071020 42 49 0.0 5.0 0.00 0.04 0.00 67 1019.8
20260830070520 43 28 0.0 6.0 0.00 0.04 0.00 66 1019.9
20260830070036 43 51 0.0 6.0 0.00 0.04 0.00 66 1019.7
20260830065517 43 44 0.0 5.0 0.00 0.04 0.04 66 1019.8
20260830065018 43 43 1.0 4.0 0.00 0.04 0.04 66 1019.8
20260830064546 43 50 0.0 6.0 0.00 0.04 0.04 66 1020.0
20260830064018 43 31 0.0 6.0 0.00 0.04 0.04 66 1020.0
20260830063518 42 54 0.0 3.0 0.00 0.04 0.04 66 1019.9
20260830063043 42 46 0.0 2.0 0.00 0.04 0.04 66 1020.0
20260830062521 42 42 0.0 3.0 0.00 0.04 0.04 65 1020.0
20260830062022 43 47 0.0 3.0 0.00 0.04 0.04 64 1020.0
20260830061545 43 48 0.0 3.0 0.00 0.04 0.04 64 1020.1
20260830061019 43 46 0.0 3.0 0.00 0.04 0.04 64 1020.2
20260830060518 42 46 0.0 1.0 0.00 0.04 0.04 64 1020.1
20260830060045 43 34 0.0 3.0 0.00 0.04 0.04 64 1020.1
20260830055520 43 31 0.0 3.0 0.00 0.04 0.04 63 1020.1
20260830055018 43 46 0.0 3.0 0.00 0.04 0.04 63 1020.1
20260830054542 43 48 0.0 2.0 0.00 0.04 0.04 63 1020.2
20260830054018 43 48 0.0 3.0 0.00 0.04 0.04 63 1020.1
20260830053516 43 46 0.0 5.0 0.00 0.04 0.04 62 1020.0
20260830053041 43 42 0.0 5.0 0.00 0.04 0.04 63 1020.3
20260830052521 43 53 0.0 5.0 0.00 0.04 0.04 64 1020.3
20260830052018 43 52 0.0 5.0 0.00 0.04 0.04 63 1020.3
20260830051547 43 51 1.0 4.0 0.00 0.04 0.04 63 1020.1
20260830051018 43 51 0.0 4.0 0.00 0.04 0.04 62 1019.9
20260830050518 43 53 1.0 4.0 0.00 0.04 0.04 62 1019.9
20260830050109 43 49 1.0 6.0 0.00 0.04 0.04 62 1019.9
20260830045520 43 48 1.0 4.0 0.00 0.04 0.04 63 1019.7
20260830045020 43 19 0.0 4.0 0.00 0.04 0.04 63 1019.7
20260830044542 43 128 0.0 4.0 0.00 0.04 0.04 62 1019.7
20260830044017 44 128 0.0 3.0 0.00 0.04 0.04 62 1019.9
20260830043524 44 128 0.0 11.0 0.00 0.04 0.04 62 1019.6
20260830043045 44 128 0.0 11.0 0.00 0.04 0.04 62 1019.5
20260830042520 44 61 2.0 6.0 0.00 0.04 0.04 62 1019.3
20260830042018 44 47 1.0 5.0 0.00 0.04 0.04 62 1019.4
20260830041611 44 49 0.0 6.0 0.00 0.04 0.04 62 1019.5
20260830041019 44 66 0.0 6.0 0.00 0.04 0.04 62 1019.5
20260830040519 44 46 0.0 6.0 0.00 0.04 0.04 62 1019.5
20260830040055 44 49 1.0 6.0 0.00 0.04 0.04 61 1019.5
20260830035518 44 55 1.0 6.0 0.00 0.04 0.04 62 1019.5
20260830035018 44 38 1.0 5.0 0.00 0.04 0.04 61 1019.4
20260830034546 44 26 1.0 5.0 0.00 0.04 0.04 61 1019.4
20260830034019 45 43 2.0 7.0 0.00 0.04 0.04 61 1019.2
20260830033521 45 47 3.0 7.0 0.00 0.04 0.04 61 1019.1